Location: Crescent
(42.8242°N, 73.7329°W)
Time: 17:23:24
(UTC+00:00)

SR - Pass Details

Date: 22 February 2026
Orbit: 572 x 848 km, 66.7° (Epoch: 8 March)

Event Time Altitude Azimuth Distance (km) Brightness Sun altitude
Rises 16:05:51 0° 336° (NNW) 3,075 ? 35.3°
Reaches altitude 10° 16:08:20 10° 346° (NNW) 2,201 ? 35.4°
Maximum altitude 16:12:52 32° 50° (NE) 1,270 ? 35.7°
Drops below altitude 10° 16:17:41 10° 113° (ESE) 2,350 ? 35.9°
Sets 16:20:25 0° 123° (ESE) 3,315 ? 36.0°
